Date,TemperatureHighF,TemperatureAvgF,TemperatureLowF,DewpointHighF,DewpointAvgF,DewpointLowF,HumidityHigh,HumidityAvg,HumidityLow,PressureMaxIn,PressureMinIn,WindSpeedMaxMPH,WindSpeedAvgMPH,GustSpeedMaxMPH,PrecipitationSumIn
2013-1-1,22.8,9.2,4.5,16.4,3.0,-1.3,82,76,64,30.20,30.08,8,1,8,0.00
2013-1-2,25.9,17.3,4.5,17.1,10.8,-1.0,80,76,68,30.20,30.09,20,5,20,0.00
2013-1-3,32.2,19.7,13.3,25.6,13.8,8.2,84,77,70,30.30,30.09,11,4,11,0.00
2013-1-4,30.9,23.4,9.7,24.4,18.2,5.0,83,80,76,30.27,30.19,22,7,22,0.00
2013-1-5,38.1,32.1,17.8,32.2,28.1,13.2,87,85,75,30.22,29.96,20,8,20,0.02
2013-1-6,34.3,20.5,16.2,30.2,16.0,11.9,85,83,76,30.33,29.94,15,2,15,0.00
2013-1-7,36.0,30.3,14.2,29.4,25.2,10.2,85,81,76,30.32,30.10,20,5,20,0.00
2013-1-8,42.1,36.5,24.6,34.1,30.5,20.4,85,79,73,30.12,30.03,20,6,20,0.00
2013-1-9,48.4,37.4,31.6,36.9,28.7,25.0,86,71,54,30.42,30.04,11,4,11,0.00
2013-1-10,46.0,37.2,25.7,42.4,32.5,21.0,87,83,67,30.44,29.80,18,7,20,0.57
2013-1-11,54.3,48.6,45.5,49.3,44.7,41.9,87,86,83,29.80,29.67,25,9,25,0.21
2013-1-12,50.2,35.4,28.9,45.9,30.8,24.7,87,83,73,29.95,29.74,18,4,18,0.04
2013-1-13,28.6,16.6,12.7,24.9,12.2,8.2,87,82,81,30.26,29.85,0,0,0,0.00
2013-1-14,22.5,17.9,11.5,17.5,13.4,7.6,84,82,79,30.42,30.26,0,0,0,0.00
2013-1-15,28.8,19.5,11.1,23.4,15.5,7.2,85,84,79,30.38,30.09,0,0,0,0.00
2013-1-16,32.9,29.4,15.6,28.4,25.0,11.9,86,83,82,30.08,29.87,9,0,9,0.00
2013-1-17,32.7,30.1,25.5,28.4,22.9,18.7,86,74,66,30.34,30.04,24,8,24,0.00
2013-1-18,39.4,35.8,18.3,31.7,28.6,14.0,84,75,71,30.40,29.97,35,13,35,0.02
2013-1-19,50.9,39.2,32.2,39.5,32.0,22.4,81,75,64,30.00,29.75,30,10,30,0.00
2013-1-20,27.1,19.3,14.2,15.9,9.8,6.6,75,66,57,30.28,30.04,14,5,14,0.00
2013-1-21,15.4,9.4,3.9,8.9,-0.7,-4.2,75,64,51,30.28,30.14,25,10,25,0.00
2013-1-22,15.3,8.6,1.0,1.1,-1.5,-5.0,75,63,53,30.37,30.26,14,5,14,0.00
2013-1-23,30.0,21.6,10.2,15.2,9.7,0.1,69,60,52,30.29,30.06,24,6,24,0.00
2013-1-24,28.0,20.5,6.4,11.9,7.0,-2.8,66,56,49,30.57,30.28,12,5,12,0.00
2013-1-25,34.5,25.6,19.6,19.8,14.4,8.0,75,63,54,30.28,29.96,19,6,19,0.00
2013-1-26,28.9,19.7,8.6,14.9,10.3,2.3,76,67,54,30.35,30.18,9,1,9,0.00
2013-1-27,37.2,32.7,20.5,33.2,26.5,12.6,86,78,66,30.31,29.90,32,9,32,0.18
2013-1-28,47.3,44.8,41.4,43.6,41.1,37.8,87,87,87,29.87,29.83,15,10,15,0.00
2013-1-29,52.0,52.0,52.0,48.2,48.2,48.2,87,87,87,29.48,29.48,0,0,0,0.00
2013-1-30,49.3,28.4,20.8,45.6,23.8,15.0,88,83,79,29.71,29.23,33,12,33,1.17
2013-1-31,21.4,12.4,4.8,16.2,4.8,-2.2,80,71,67,30.20,29.71,32,12,32,1.02
2013-2-1,20.8,13.5,1.9,13.2,5.2,-4.5,75,69,65,30.37,30.15,22,8,22,1.02
2013-2-2,28.6,16.1,10.9,22.8,10.7,5.5,83,79,74,30.15,29.98,15,3,15,1.02
2013-2-3,28.0,24.3,14.4,19.9,17.2,9.4,85,74,66,30.06,29.93,17,4,17,1.02
2013-2-4,36.3,28.2,19.9,27.8,22.0,15.0,82,77,70,29.99,29.76,14,4,14,1.02
2013-2-5,37.9,31.6,17.8,31.4,26.3,13.5,85,81,74,30.06,29.79,21,6,21,1.02
2013-2-6,32.2,29.0,25.0,27.6,24.2,20.5,84,82,80,30.16,30.06,3,0,3,1.02
2013-2-7,37.9,35.3,32.4,34.1,31.6,28.8,87,86,85,29.95,29.81,25,3,25,0.28
2013-2-8,31.1,28.6,25.0,24.9,23.2,20.6,84,80,77,30.35,30.22,23,5,23,1.34
2013-2-9,30.0,28.7,28.2,24.6,23.6,23.1,82,81,80,30.34,30.31,14,4,14,0.00
2013-2-10,46.0,40.8,33.6,42.4,37.1,29.3,88,87,81,30.01,29.50,41,13,41,1.75
2013-2-11,39.9,32.8,29.3,33.3,24.9,23.0,79,73,67,30.06,29.58,26,8,26,1.38
2013-2-12,36.7,29.1,25.2,27.9,23.4,21.2,86,79,69,30.10,29.90,12,2,12,1.34
2013-2-13,44.4,32.7,24.4,35.8,27.4,20.8,87,81,67,29.90,29.72,14,4,14,0.00
2013-2-14,41.4,35.8,31.6,32.7,29.5,26.4,85,78,70,29.98,29.67,17,4,17,1.34
2013-2-15,33.1,28.6,22.5,28.5,19.1,15.3,86,68,57,30.18,29.98,24,8,24,1.34
2013-2-16,27.3,17.2,12.7,14.9,9.1,5.7,75,70,58,30.16,30.07,12,4,12,1.34
2013-2-17,35.8,28.2,9.3,23.3,19.0,3.8,79,68,60,30.17,29.96,18,6,18,1.34
2013-2-18,54.5,39.3,27.0,45.8,32.7,22.1,86,77,67,29.90,29.45,19,10,19,0.22
2013-2-19,24.4,18.8,12.7,18.5,10.3,5.2,79,69,64,30.20,29.69,28,11,28,1.35
2013-2-20,25.3,18.7,6.4,15.5,10.7,-0.1,79,71,66,30.33,30.20,14,5,14,1.35
2013-2-21,31.1,27.4,13.8,22.8,20.8,9.0,84,76,70,30.32,29.90,27,10,27,1.35
2013-2-22,39.6,31.2,25.5,32.8,25.8,20.5,87,80,72,29.95,29.76,19,9,19,1.47
2013-2-23,33.1,24.5,19.2,22.8,18.0,14.4,83,77,65,29.95,29.91,9,4,9,1.35
2013-2-24,37.0,27.4,14.7,27.5,22.1,10.5,84,80,67,30.10,29.96,6,0,6,1.43
2013-2-25,43.3,32.5,23.2,34.1,27.1,19.6,87,81,68,30.11,29.89,11,4,11,0.00
2013-2-26,35.2,33.1,32.0,31.4,29.1,26.9,87,85,76,29.81,29.44,23,1,23,1.66
2013-2-27,38.8,33.6,30.9,31.2,28.7,27.0,87,82,73,29.73,29.51,0,0,0,1.43
2013-2-28,40.6,35.4,31.3,32.8,29.6,26.5,86,79,71,30.03,29.73,11,0,11,1.35
2013-3-1,26.2,25.3,25.0,20.6,19.7,19.4,80,79,79,30.16,30.14,10,2,10,0.00
2013-3-2,30.9,18.9,14.0,21.3,12.6,8.5,80,76,66,30.17,30.11,13,3,13,1.35
2013-3-3,31.6,25.6,12.6,19.4,15.3,7.9,82,65,54,30.13,30.04,8,0,8,1.35
2013-3-4,40.1,34.8,23.2,30.4,26.9,17.9,81,73,67,30.06,29.89,22,10,22,1.35
2013-3-5,39.7,34.4,30.0,33.6,29.8,25.9,86,83,78,29.86,29.75,9,0,9,1.49
2013-3-6,39.4,32.3,25.0,28.9,25.0,21.4,87,75,64,30.29,29.99,0,0,0,1.36
2013-3-7,47.5,39.1,25.5,32.0,27.8,21.0,84,64,54,30.38,30.27,7,0,7,1.34
2013-3-8,41.5,34.6,20.5,32.9,28.4,16.7,86,78,71,30.42,30.23,16,7,16,1.34
2013-3-9,47.1,39.5,31.8,37.9,34.2,27.4,84,81,70,30.24,29.77,21,8,21,1.38
2013-3-10,49.1,45.8,39.9,45.4,42.0,35.7,88,86,83,29.80,29.55,18,4,18,1.73
2013-3-11,45.7,35.1,31.3,42.3,31.0,26.7,88,85,83,29.85,29.57,22,10,22,1.38
2013-3-12,39.9,30.8,26.1,30.4,25.0,19.9,84,79,68,30.06,29.84,22,10,22,1.43
2013-3-13,34.3,29.3,23.5,24.4,21.2,18.5,81,72,63,30.32,30.05,24,6,24,1.35
2013-3-14,43.9,35.0,21.9,33.3,27.6,17.5,86,75,64,30.31,30.05,20,6,20,1.35
2013-3-15,54.9,37.1,28.9,43.5,31.7,25.2,87,81,65,30.04,29.73,13,2,13,1.35
2013-3-16,41.2,36.2,34.3,37.3,31.0,28.0,87,81,74,30.00,29.64,12,6,12,1.35
2013-3-17,39.4,33.1,29.3,28.7,26.1,23.0,82,76,64,30.13,29.89,23,10,23,1.35
2013-3-18,39.0,32.6,24.1,34.4,27.6,16.0,86,82,70,29.89,29.63,31,8,31,0.00
2013-3-19,37.8,29.5,19.2,22.1,17.2,11.4,71,60,48,30.06,29.85,23,12,23,1.35
2013-3-20,29.5,23.4,15.4,19.6,11.2,7.0,74,60,50,30.13,30.04,26,11,26,1.35
2013-3-21,34.2,23.0,12.0,17.7,12.3,5.8,77,64,50,30.06,29.97,21,3,22,0.00
2013-3-22,41.7,30.9,16.3,23.7,20.0,11.5,82,64,47,30.04,29.96,9,2,9,1.35
2013-3-23,45.0,33.3,27.1,27.9,23.5,20.9,77,67,48,30.06,29.93,16,6,16,1.35
2013-3-24,34.2,31.7,28.6,28.9,26.7,23.0,87,82,71,29.95,29.59,28,11,28,1.35
2013-3-25,39.6,33.3,26.6,29.0,26.2,22.9,87,75,65,30.07,29.67,25,12,25,1.35
2013-3-26,43.9,37.2,30.4,29.1,27.1,25.2,83,68,54,30.26,30.07,17,5,17,1.35
2013-3-27,48.0,40.7,29.1,30.1,26.9,24.0,83,59,48,30.31,30.24,12,2,12,1.35
2013-3-28,49.6,36.7,25.5,34.3,27.7,20.8,83,71,52,30.32,30.24,4,0,4,0.00
2013-3-29,58.3,42.0,34.0,40.6,31.8,28.5,81,68,47,30.27,30.16,0,0,0,1.35
2013-3-30,58.1,47.1,29.1,44.0,37.9,24.3,84,71,58,30.18,29.88,12,2,14,1.35
2013-3-31,49.8,45.6,43.5,43.4,40.9,39.0,86,84,79,29.83,29.77,14,5,14,1.35
2013-4-1,41.9,35.1,28.2,26.0,20.6,16.4,72,56,43,30.17,29.90,22,8,24,1.35
2013-4-2,45.3,32.5,19.6,21.9,17.9,13.9,80,57,36,30.27,30.18,14,4,14,0.00
2013-4-3,48.9,35.0,21.0,24.0,19.4,13.7,73,55,36,30.40,30.27,8,3,8,0.00
2013-4-4,57.6,39.7,23.7,30.4,23.8,16.4,74,54,34,30.25,29.97,9,2,9,1.35
2013-4-5,56.5,43.8,31.8,32.5,27.8,23.0,77,55,36,30.16,29.99,16,7,16,0.00
2013-4-6,72.3,53.4,35.4,44.5,35.5,22.8,69,52,35,30.07,29.65,26,11,26,0.00
2013-4-7,69.6,52.4,41.5,45.4,39.8,36.7,85,64,41,29.91,29.68,11,5,13,1.35
2013-4-8,72.9,60.8,45.1,57.0,51.7,36.3,86,73,54,29.89,29.62,19,8,19,0.16
2013-4-9,79.0,66.0,50.7,63.2,54.7,44.1,86,68,54,29.89,29.78,26,9,26,1.37
2013-4-10,52.9,45.5,40.3,48.8,41.3,36.4,88,85,78,29.90,29.68,37,9,37,1.61
2013-4-11,53.8,46.0,39.4,48.5,41.6,34.1,88,85,79,29.81,29.57,17,8,23,1.65
2013-4-12,44.1,40.7,37.0,37.6,34.8,31.6,84,79,74,29.89,29.60,22,9,26,0.12
2013-4-13,53.4,41.8,35.2,38.3,33.6,28.2,83,73,54,29.96,29.87,15,4,15,1.34
2013-4-14,70.9,55.9,41.7,55.6,46.1,36.3,81,70,54,29.94,29.63,24,10,24,1.34
2013-4-15,65.5,53.9,45.0,56.7,48.3,41.0,87,82,67,29.98,29.72,23,5,23,1.71
2013-4-16,55.2,48.0,41.2,43.3,40.7,37.6,87,76,62,30.16,29.91,15,3,15,1.61
2013-4-17,51.1,51.1,51.1,47.3,47.3,47.3,87,87,87,29.74,29.74,6,6,6,0.00
2013-4-18,61.5,56.0,46.0,57.3,52.1,41.2,87,87,83,29.70,29.43,24,7,24,1.41
2013-4-19,39.7,36.3,34.0,33.4,29.4,27.4,79,76,71,29.96,29.57,21,10,21,1.32
2013-4-20,34.0,32.4,30.0,28.7,27.0,25.7,85,80,77,30.16,29.96,10,2,11,1.34
2013-4-24,51.4,41.8,34.9,37.2,33.8,30.5,87,74,55,30.11,29.89,22,9,22,0.02
2013-4-25,55.9,43.6,35.2,34.8,31.8,28.9,82,65,44,30.26,30.05,17,6,17,0.00
2013-4-26,66.0,50.2,34.0,51.2,40.7,28.7,84,71,55,30.28,30.21,15,6,15,0.00
2013-4-27,70.9,53.6,40.1,51.2,45.1,35.9,86,74,49,30.25,29.95,9,3,9,0.16
2013-4-28,64.9,55.7,51.1,56.7,50.7,47.0,87,83,72,29.92,29.80,6,1,6,0.04
2013-4-29,73.2,59.6,44.6,61.3,52.9,41.2,88,79,64,29.89,29.75,16,5,16,0.00
2013-4-30,81.5,66.3,56.7,66.2,57.6,52.6,86,74,50,29.95,29.75,16,7,16,1.33
2013-5-1,63.1,63.0,63.0,55.9,55.9,55.9,78,78,78,29.96,29.95,6,2,7,0.00
2013-5-2,71.4,55.8,46.2,57.4,47.5,42.3,86,74,58,30.18,30.06,26,9,26,1.86
2013-5-3,66.9,56.7,42.6,61.3,51.9,38.7,87,84,78,30.07,29.82,17,6,17,1.47
2013-5-4,69.6,57.7,55.4,57.9,53.1,50.9,87,85,66,30.01,29.85,16,4,16,1.36
2013-5-5,73.0,60.7,50.7,56.9,51.8,46.7,87,73,48,30.00,29.89,13,3,13,1.34
2013-5-6,76.1,71.3,50.7,54.6,48.4,45.9,84,46,36,29.97,29.91,26,8,26,1.32
2013-5-7,78.1,64.9,49.6,51.9,47.6,40.7,72,55,38,30.00,29.93,15,1,15,1.32
2013-5-8,80.6,70.1,51.4,58.0,52.0,43.8,77,54,41,30.01,29.94,7,0,7,1.32
2013-5-9,71.2,64.6,58.8,62.5,57.5,49.3,82,78,67,29.97,29.91,16,4,16,1.43
2013-5-10,61.5,55.0,51.3,57.6,49.9,46.9,87,83,80,29.90,29.78,14,3,14,1.32
2013-5-11,61.9,52.9,41.5,52.9,41.1,29.7,86,66,42,30.03,29.86,16,4,16,0.00
2013-5-12,57.0,46.1,34.9,34.8,31.2,28.1,78,57,38,30.13,30.03,10,1,10,1.32
2013-5-13,66.4,58.5,36.9,43.1,39.7,30.4,78,51,39,30.15,30.00,12,1,12,1.32
2013-5-14,84.6,71.5,51.6,64.9,54.4,40.2,71,55,46,30.00,29.69,22,4,22,1.32
2013-5-15,76.8,73.0,68.5,59.3,57.6,54.8,67,59,51,29.86,29.70,15,5,15,1.34
2013-5-16,80.2,73.2,58.8,59.5,56.1,48.4,68,56,46,29.94,29.82,11,1,11,1.32
2013-5-17,79.2,70.0,59.2,65.4,60.3,52.4,79,72,58,30.01,29.93,14,2,14,1.34
2013-5-18,78.6,68.8,59.2,67.8,60.5,54.1,84,75,65,30.03,29.91,5,0,5,0.00
2013-5-19,87.1,74.5,59.4,69.6,63.9,54.3,85,70,54,29.93,29.72,12,3,12,0.00
2013-5-20,87.4,80.0,66.9,66.0,61.6,58.8,77,56,42,29.84,29.73,31,9,31,1.32
2013-5-21,79.5,70.7,61.9,68.0,63.1,57.6,86,77,66,29.77,29.67,14,6,14,0.19
2013-5-22,70.9,63.5,60.1,63.4,57.1,54.6,87,80,69,29.78,29.62,18,1,18,1.75
2013-5-23,59.7,53.8,46.6,54.7,48.2,41.7,86,81,73,30.24,29.78,86,12,86,1.41
2013-5-24,62.2,49.7,39.0,49.6,40.9,34.3,84,72,58,30.39,30.25,14,2,14,1.37
2013-5-25,57.2,49.7,45.3,49.8,44.6,38.2,86,83,68,30.35,30.19,57,20,57,1.34
2013-5-26,49.8,49.7,49.6,46.0,45.8,45.6,87,87,86,30.25,30.21,28,28,28,0.02
2013-5-27,70.9,63.9,56.8,65.8,59.7,53.0,87,86,83,30.06,29.78,86,29,86,1.40
2013-5-28,76.8,70.7,62.4,70.2,65.4,58.5,87,84,76,29.86,29.76,86,10,86,1.36
2013-5-29,82.2,71.1,62.2,71.7,64.8,58.3,87,81,69,29.92,29.82,57,3,57,1.35
2013-5-30,82.0,72.8,63.1,72.9,66.0,58.8,87,79,70,29.91,29.78,17,7,17,0.18
2013-5-31,73.8,69.1,63.1,67.2,64.6,59.2,87,86,77,29.87,29.72,100,13,100,1.35
2013-6-1,73.6,64.5,61.9,66.2,59.9,57.1,87,85,77,29.78,29.68,95,10,95,1.35
2013-6-2,64.2,56.4,53.2,57.8,51.7,49.1,87,84,76,30.03,29.77,86,20,86,1.32
2013-6-3,66.0,60.0,48.4,54.3,51.0,44.7,87,73,63,30.09,30.01,57,9,57,1.69
2013-6-4,72.5,66.4,49.6,59.7,55.8,45.3,86,69,62,30.11,30.03,28,2,28,1.33
2013-6-5,76.1,59.7,55.2,62.9,53.1,50.4,85,79,63,30.05,29.93,28,2,28,1.33
2013-6-6,75.0,64.4,58.1,60.3,54.5,49.6,79,70,59,29.88,29.82,14,2,14,0.00
2013-6-7,66.0,61.1,52.7,55.4,52.4,46.7,80,73,68,29.89,29.86,12,2,12,1.33
2013-6-8,67.8,57.9,52.0,53.2,48.1,44.4,77,70,59,29.95,29.90,7,1,7,1.33
2013-6-9,79.7,68.3,57.4,63.2,58.7,51.3,82,72,50,29.95,29.78,71,6,71,1.36
2013-6-10,79.7,68.9,59.9,64.1,59.1,55.4,86,72,54,29.87,29.73,57,2,57,1.32
2013-6-11,85.8,80.6,60.6,70.4,67.1,55.8,84,64,56,29.92,29.81,78,1,78,1.32
2013-6-12,91.6,84.4,68.2,73.0,70.0,62.9,85,63,50,29.88,29.58,71,7,71,1.32
2013-6-13,82.8,72.7,62.8,65.3,59.4,53.0,85,65,43,30.00,29.66,12,2,12,0.04
2013-6-14,79.0,71.3,55.8,60.6,56.2,49.1,80,59,50,30.09,29.96,14,0,14,1.32
2013-6-15,79.7,72.4,64.0,66.5,62.7,54.7,80,72,59,30.04,29.88,14,1,14,1.34
2013-6-16,80.8,72.5,65.7,70.5,65.0,61.1,86,78,67,29.95,29.88,5,0,5,1.32
2013-6-17,85.8,81.7,64.2,69.7,62.9,59.9,86,54,45,29.94,29.87,71,0,71,1.32
2013-6-18,72.0,66.8,63.3,60.6,58.3,56.4,78,74,67,29.95,29.89,28,3,28,1.32
2013-6-19,79.5,68.5,55.2,65.5,57.7,47.8,81,69,60,30.09,30.03,6,0,6,1.32
2013-6-20,87.6,81.8,63.5,68.6,62.8,54.7,79,53,45,30.13,30.05,86,7,86,1.32
2013-6-21,88.5,71.4,68.2,69.7,65.1,59.9,86,81,53,30.13,29.97,100,6,100,1.85
2013-6-22,74.5,72.1,70.2,69.7,66.9,65.3,87,84,81,30.04,29.97,86,11,86,1.32
2013-6-23,84.2,84.0,83.8,74.0,73.8,73.6,72,72,71,29.99,29.98,16,10,16,0.00
2013-6-24,84.7,78.7,64.9,75.4,71.1,60.9,87,78,72,30.09,29.96,86,6,86,2.30
2013-6-25,83.5,73.5,67.3,75.7,67.7,63.0,86,82,73,29.94,29.82,20,4,20,1.37
2013-6-26,84.7,78.8,66.6,75.7,72.3,62.3,86,81,73,29.83,29.71,71,6,71,1.49
2013-6-27,84.7,75.7,70.5,74.3,69.7,66.1,86,82,70,29.82,29.77,86,12,86,1.34
2013-6-28,69.4,69.4,69.4,63.7,63.7,63.7,82,82,82,29.65,29.65,28,28,28,0.00
2013-6-29,71.4,66.1,62.8,66.4,61.8,58.6,87,86,83,29.71,29.61,86,6,86,1.53
2013-6-30,69.6,68.5,67.8,64.7,64.0,63.5,86,85,85,29.85,29.84,100,13,100,0.00
2013-7-1,77.0,69.8,57.4,56.5,53.3,51.0,80,57,44,30.02,29.93,28,8,28,1.33
2013-7-2,71.8,66.5,58.6,60.8,56.9,52.2,80,71,62,30.04,30.00,57,6,57,1.33
2013-7-3,65.1,61.3,59.5,59.6,56.4,54.4,85,84,81,30.07,29.99,86,0,86,1.33
2013-7-4,82.0,70.2,58.8,69.8,61.7,53.4,85,75,64,30.08,30.02,8,2,8,0.00
2013-7-5,82.2,76.1,59.9,76.0,69.9,54.6,86,81,72,30.07,30.01,14,1,14,1.33
2013-7-6,82.2,75.2,64.0,72.7,67.9,59.7,86,78,70,30.06,29.98,21,2,21,1.33
2013-7-7,87.1,76.9,66.0,74.7,68.6,61.3,85,76,64,30.03,29.96,17,2,17,1.33
2013-7-8,84.4,77.5,71.2,75.2,70.7,66.1,86,80,72,30.07,29.97,19,2,19,1.53
2013-7-9,85.3,80.6,73.2,78.4,74.9,68.5,86,83,80,30.04,29.89,12,1,12,1.38
2013-7-10,84.2,75.4,65.5,75.4,67.3,59.8,87,77,63,30.02,29.84,18,2,18,1.69
2013-7-11,80.4,73.0,60.8,65.5,59.8,54.8,86,65,52,30.09,30.02,16,3,16,1.32
2013-7-12,84.4,67.9,55.6,61.8,56.5,50.8,85,69,45,30.15,30.06,10,0,10,1.32
2013-7-13,84.9,68.3,58.8,67.8,59.8,53.7,85,75,55,30.15,30.07,8,0,8,1.32
2013-7-14,87.4,74.3,63.7,74.6,66.9,59.1,85,78,65,30.18,30.11,4,0,4,1.32
2013-7-15,88.9,81.6,69.1,78.5,74.0,64.7,86,78,70,30.26,30.18,7,0,7,1.40
2013-7-16,89.6,82.2,70.0,77.1,73.1,65.6,87,75,64,30.32,30.24,14,1,14,1.32
2013-7-17,79.0,73.4,70.0,74.1,68.7,65.6,86,85,83,30.33,30.28,4,0,4,1.32
2013-7-18,93.4,83.0,72.3,78.9,73.9,67.6,86,74,62,30.20,30.01,8,0,8,1.32
2013-7-19,94.5,81.7,73.4,78.1,72.9,68.6,86,75,58,29.99,29.82,14,1,14,1.32
2013-7-20,86.7,78.1,70.9,72.5,66.9,64.0,85,70,53,29.93,29.83,14,1,14,1.36
2013-7-21,83.8,76.5,64.6,74.0,69.8,59.8,86,80,72,29.95,29.86,9,1,9,1.36
2013-7-22,86.4,77.4,66.4,73.2,70.0,62.4,87,78,65,29.86,29.77,6,0,6,1.34
2013-7-23,81.0,71.6,62.2,71.1,63.0,55.8,87,74,62,29.97,29.75,16,2,16,1.37
2013-7-24,76.5,61.7,54.7,58.8,53.8,50.3,85,76,53,30.05,29.95,15,1,15,1.33
2013-7-25,80.1,70.0,52.0,62.7,57.7,47.0,83,66,51,30.11,30.04,57,1,57,1.33
2013-7-26,71.1,65.7,61.3,65.8,60.4,55.8,86,83,78,30.06,29.91,6,1,6,0.25
2013-7-27,69.3,58.3,54.1,58.4,50.4,46.9,87,75,59,29.95,29.89,6,1,6,1.34
2013-7-28,73.0,61.2,50.9,56.0,51.6,46.2,85,72,55,30.03,29.91,6,1,6,0.00
2013-7-29,78.3,66.7,50.4,60.5,56.1,46.1,86,70,54,30.16,30.03,4,0,4,1.32
2013-7-30,67.6,66.1,60.1,63.6,61.8,53.6,87,86,79,30.15,30.04,9,1,17,1.73
2013-7-31,74.5,69.7,65.5,69.1,64.5,60.8,87,83,79,30.05,29.97,8,1,12,1.43
2013-8-1,80.4,70.7,60.4,68.7,60.4,56.5,87,71,53,30.01,29.97,11,1,21,1.32
2013-8-2,85.6,76.8,61.9,74.1,68.2,56.4,86,75,65,29.97,29.88,16,2,26,2.18
2013-8-3,79.5,71.6,63.1,66.6,61.4,57.5,87,71,56,30.10,29.96,5,1,10,1.35
2013-8-4,78.6,67.0,55.9,63.1,58.8,51.5,86,75,54,30.17,30.09,4,1,6,1.33
2013-8-5,75.9,70.3,57.0,66.9,63.7,52.5,86,80,69,30.10,29.87,8,1,13,1.49
2013-8-6,83.8,73.1,63.7,74.8,67.8,59.4,87,83,74,29.91,29.83,114,4,114,1.32
2013-8-7,84.0,74.6,69.4,77.3,69.8,65.0,87,85,73,29.93,29.81,7,1,14,1.50
2013-8-8,80.1,71.9,64.0,69.3,64.4,59.5,87,78,67,29.99,29.93,57,4,57,1.32
2013-8-9,80.4,69.7,57.7,67.8,61.9,53.2,85,77,65,30.04,29.97,57,3,57,0.00
2013-8-10,79.3,70.6,62.4,66.0,61.9,55.9,86,74,60,30.11,30.04,5,1,5,0.00
2013-8-11,80.4,69.6,55.8,67.1,61.7,51.4,85,77,63,30.14,30.04,2,0,4,1.32
2013-8-12,82.6,75.9,63.1,72.2,68.1,58.5,86,77,70,30.06,29.89,6,1,21,1.32
2013-8-13,73.4,61.3,53.2,62.6,52.1,47.3,87,72,53,30.14,29.93,10,2,10,1.32
2013-8-14,73.2,55.9,49.6,56.1,48.7,44.9,85,77,52,30.20,30.12,7,0,7,1.32
2013-8-15,74.8,62.9,52.9,59.0,55.1,47.6,84,76,55,30.18,30.09,1,0,7,1.32
2013-8-16,78.6,66.5,58.1,60.8,56.5,53.0,83,71,51,30.17,30.11,4,0,4,1.32
2013-8-17,78.6,66.9,54.0,63.7,55.9,48.6,84,68,55,30.21,30.14,4,0,10,1.32
2013-8-18,79.9,64.2,53.8,63.9,56.4,49.1,85,76,56,30.18,30.09,6,0,7,1.32
2013-8-19,82.2,69.9,58.3,67.9,61.2,53.5,84,74,61,30.12,30.03,6,0,7,1.32
2013-8-20,85.3,77.3,61.7,71.2,66.8,57.2,86,71,60,30.12,30.04,6,2,14,1.32
2013-8-21,82.2,69.1,64.4,72.3,63.8,60.1,86,83,72,30.10,30.06,7,3,7,0.00
2013-8-22,74.7,71.5,67.6,69.7,66.5,63.6,87,84,82,30.13,30.00,5,1,12,1.79
2013-8-23,80.2,70.0,63.1,70.5,64.0,57.6,87,81,70,30.14,30.07,5,1,5,0.00
2013-8-24,84.0,73.2,57.4,71.7,65.0,53.2,86,76,66,30.23,30.14,6,2,10,1.32
2013-8-25,85.3,72.2,61.7,71.6,63.9,56.5,84,76,61,30.25,30.16,5,3,12,1.32
2013-8-26,88.2,80.4,64.6,76.0,71.3,60.0,86,74,66,30.18,30.03,114,3,114,1.32
2013-8-27,72.3,72.1,72.0,67.6,67.3,67.2,85,85,85,30.04,30.03,5,3,9,0.00
2013-8-28,91.0,79.0,71.4,78.8,70.3,64.3,84,75,66,30.01,29.90,6,2,6,0.00
2013-8-29,83.5,75.6,68.7,74.5,68.7,63.7,87,79,69,30.08,29.98,4,0,21,1.32
2013-8-30,92.5,79.9,65.5,78.7,70.3,61.5,87,73,58,29.98,29.78,12,3,25,1.32
2013-8-31,87.4,71.3,66.2,76.1,64.6,60.7,84,79,67,29.84,29.74,8,3,12,1.32
2013-9-1,85.8,78.8,70.0,74.1,70.0,64.2,86,75,68,29.83,29.75,6,1,12,1.32
2013-9-2,81.1,71.3,61.3,65.6,60.2,55.2,84,69,54,29.99,29.82,6,3,14,1.32
2013-9-3,61.9,61.0,59.5,56.3,55.7,54.4,83,83,82,29.99,29.98,1,0,3,0.00
2013-9-4,80.2,65.0,54.7,63.4,56.6,50.3,85,75,51,30.14,30.05,4,0,4,1.32
2013-9-5,82.2,66.6,59.5,68.7,58.5,53.2,84,76,62,30.20,30.12,57,2,57,1.32
2013-9-6,85.3,69.4,56.5,68.6,60.2,51.1,82,73,56,30.20,30.03,7,1,11,1.32
2013-9-7,64.2,64.2,64.2,58.6,58.6,58.6,82,82,82,30.03,30.03,2,2,4,0.00
2013-9-8,85.1,74.4,67.8,73.2,66.7,63.1,85,77,67,29.97,29.89,7,2,7,1.34
2013-9-9,93.4,84.4,66.6,76.4,72.7,61.9,87,69,55,29.93,29.86,7,4,22,1.32
2013-9-10,94.1,78.2,68.5,72.3,67.2,63.2,83,70,46,30.05,29.93,11,3,12,1.32
2013-9-11,93.6,83.4,69.1,71.3,68.3,63.4,82,62,45,30.08,30.00,57,4,57,1.32
2013-9-12,81.1,71.0,58.3,68.8,60.6,50.2,87,71,43,30.05,29.96,12,3,12,0.33
2013-9-13,67.8,55.1,49.6,50.2,45.9,43.0,84,72,48,30.15,30.06,8,1,8,1.33
2013-9-14,69.6,56.3,42.6,52.4,46.1,38.1,85,69,50,30.17,30.02,5,1,7,1.33
2013-9-15,51.3,50.3,49.6,45.0,43.9,43.0,79,78,77,30.03,30.01,5,3,10,0.00
2013-9-16,67.6,56.4,49.1,56.1,49.6,44.0,87,78,61,30.29,30.12,12,3,12,1.33
2013-9-17,55.0,48.8,45.5,51.2,44.4,41.2,87,85,83,30.29,30.26,2,0,5,1.33
2013-9-18,82.6,70.6,59.7,69.0,62.1,53.0,85,75,62,30.07,29.92,14,4,14,0.00
2013-9-19,90.3,78.0,68.7,74.4,68.7,64.7,87,74,56,29.95,29.80,12,5,12,0.00
2013-9-20,73.8,65.1,54.1,68.1,58.5,48.6,87,79,66,29.87,29.82,7,2,7,1.40
2013-9-21,54.0,52.3,51.1,48.6,47.8,46.7,86,84,82,29.86,29.84,2,1,3,0.00
2013-9-22,68.2,55.4,42.6,51.7,46.2,38.4,86,72,53,30.01,29.93,8,2,8,0.00
2013-9-23,71.2,65.5,43.2,53.7,50.6,38.7,85,60,51,30.05,29.97,5,2,11,1.32
2013-9-24,73.2,58.1,44.8,57.1,48.8,39.6,85,72,55,29.99,29.86,6,2,8,1.32
2013-9-25,76.1,61.7,49.8,60.9,51.6,44.9,83,70,53,29.91,29.85,7,3,7,0.00
2013-9-26,78.6,61.6,47.8,59.0,50.4,43.5,86,68,46,30.03,29.92,3,1,3,0.00
2013-9-27,81.0,66.5,47.1,59.8,50.0,41.6,83,57,42,30.11,30.02,8,4,17,1.32
2013-9-28,83.1,68.0,51.6,63.1,56.1,46.3,84,67,48,30.04,29.90,114,11,114,0.00
2013-9-29,67.8,60.8,53.2,57.0,52.4,49.1,87,75,55,30.05,29.96,6,3,12,1.47
2013-9-30,73.9,58.5,42.8,57.6,49.4,38.6,86,73,53,29.97,29.85,8,2,8,0.00
2013-10-1,73.2,66.2,57.6,65.6,60.9,53.1,87,83,77,29.97,29.89,12,5,14,1.33
2013-10-2,81.1,68.4,62.2,68.9,62.4,57.6,86,81,66,30.06,29.97,6,2,10,1.33
2013-10-3,65.8,64.1,62.4,60.7,59.0,57.5,84,84,83,29.97,29.92,6,3,13,0.44
2013-10-4,83.3,71.4,62.2,72.8,65.1,57.0,84,81,66,29.97,29.90,7,4,16,1.32
2013-10-5,82.0,71.8,59.5,73.5,64.8,54.0,84,79,65,29.94,29.78,8,4,8,0.00
2013-10-6,63.1,52.1,47.1,53.5,44.6,40.9,85,76,60,29.81,29.72,10,4,10,1.35
2013-10-7,57.9,50.6,43.0,49.6,45.5,38.8,86,83,72,29.97,29.77,5,4,14,1.33
2013-10-8,50.9,47.4,45.7,46.2,42.6,41.1,84,83,79,30.16,30.07,3,1,7,1.33
2013-10-9,70.9,52.2,43.9,52.9,42.8,39.1,83,71,48,30.20,30.08,57,2,57,1.33
2013-10-10,61.3,50.7,45.0,55.5,44.4,39.5,84,79,73,30.14,30.09,3,0,7,1.33
2013-10-11,78.6,64.5,55.0,61.8,54.5,49.0,83,71,52,30.02,29.91,18,5,18,0.00
2013-10-12,72.9,60.8,49.6,63.4,51.2,40.3,85,71,61,30.17,29.93,10,3,12,1.33
2013-10-13,66.7,55.1,39.9,45.4,37.8,31.8,82,54,36,30.37,30.20,7,2,12,1.33
2013-10-14,49.8,39.0,34.3,43.9,33.4,28.7,82,80,70,30.35,30.33,4,1,7,1.33
2013-10-15,67.3,60.2,50.2,61.6,53.9,40.9,85,80,69,30.03,29.79,9,5,22,1.33
2013-10-16,58.8,50.5,42.4,46.4,42.9,37.3,84,75,63,29.95,29.87,8,3,18,1.33
2013-10-17,59.5,51.0,42.6,49.3,42.0,35.8,86,72,56,29.94,29.84,9,4,17,1.39
2013-10-18,53.1,46.2,39.0,42.0,38.1,34.9,86,74,62,29.97,29.84,8,2,13,1.33
2013-10-19,55.9,47.3,41.5,43.4,38.1,36.9,86,71,54,29.92,29.80,10,4,17,1.37
2013-10-20,55.2,46.5,39.4,44.9,39.4,34.1,83,77,67,29.87,29.82,7,3,17,1.33
2013-10-21,53.8,40.5,30.0,43.3,31.1,21.4,77,69,45,29.98,29.81,114,4,114,1.33
2013-10-22,46.6,40.5,29.1,37.0,33.2,21.9,85,75,64,29.98,29.84,9,2,14,1.69
2013-10-23,45.7,40.0,31.6,36.9,32.2,27.9,86,74,60,30.04,29.91,7,3,14,1.33
2013-10-24,42.6,35.1,30.9,32.6,27.3,24.5,84,73,58,30.30,30.02,9,2,9,1.33
2013-10-25,51.6,38.6,26.2,37.4,29.8,21.1,82,71,53,30.40,30.13,7,3,20,1.33
2013-10-26,56.5,39.1,32.5,38.6,28.8,25.0,75,67,44,30.08,29.88,17,4,17,1.33
2013-10-27,48.7,39.4,29.1,37.2,31.5,23.1,80,73,63,30.07,30.02,4,2,9,1.33
2013-10-28,59.9,44.1,31.8,39.6,33.8,24.9,77,68,46,30.28,30.04,13,3,13,1.33
2013-10-29,52.7,40.9,33.6,44.3,36.0,29.5,86,83,73,30.29,30.20,6,3,10,1.33
2013-11-12,30.7,23.5,18.0,22.5,17.4,13.4,82,77,71,30.68,30.65,14,4,14,0.02
2013-11-13,37.6,32.4,17.4,26.9,23.7,13.1,83,70,61,30.63,30.28,15,10,26,3.28
2013-11-14,49.3,43.0,28.6,31.9,28.7,21.1,73,57,49,30.21,29.99,17,12,31,3.28
2013-11-15,49.6,43.8,35.8,40.4,35.0,27.0,83,71,59,30.03,29.97,14,6,24,3.28
2013-11-16,59.7,52.2,38.8,53.4,47.7,34.7,86,85,77,29.95,29.59,26,12,26,0.15
2013-11-17,70.9,65.8,56.3,64.6,60.8,51.8,86,84,80,29.61,29.34,33,15,40,3.28
2013-11-18,46.0,35.7,29.1,37.4,28.5,23.7,85,75,57,30.27,29.85,19,7,26,0.00
2013-11-19,42.4,31.0,22.1,33.0,25.6,18.0,85,80,68,30.36,30.24,10,4,13,0.00
2013-11-20,47.1,37.8,26.2,36.3,32.2,22.6,86,80,65,30.25,30.08,14,7,21,0.19
2013-11-21,49.3,45.4,41.2,45.3,41.3,37.3,87,86,84,30.21,30.10,7,2,7,0.16
2013-11-22,43.5,38.1,36.3,39.9,34.2,32.8,87,86,82,30.44,30.20,15,12,26,0.02
2013-11-23,25.7,20.5,13.8,21.7,14.0,7.6,87,76,63,30.72,30.46,22,10,22,0.00
2013-11-24,26.6,16.4,7.5,14.2,9.1,2.6,81,73,59,30.74,30.42,9,3,9,0.00
2013-11-25,33.8,27.6,17.8,23.0,19.0,12.7,80,70,64,30.39,30.21,15,10,25,0.00
2013-11-26,37.2,25.1,18.0,28.0,16.1,7.6,81,69,62,30.20,30.04,20,11,29,0.00
2013-11-27,27.1,20.0,11.3,13.7,9.5,4.0,73,64,56,30.27,30.18,19,10,26,0.00
2013-11-28,36.0,25.3,18.1,21.0,15.9,11.5,76,68,54,30.49,30.19,15,6,15,0.00
2013-11-29,37.9,29.4,10.8,24.4,20.0,5.6,81,68,58,30.61,30.40,11,6,13,0.00
2013-11-30,48.7,34.7,25.0,34.7,26.6,19.1,81,73,57,30.38,30.07,16,6,16,0.00
2013-12-1,46.0,35.4,26.4,34.1,29.1,22.2,85,78,62,30.12,29.98,9,3,12,0.00
2013-12-2,46.6,36.8,29.7,36.7,31.5,24.6,85,81,68,29.98,29.72,9,5,10,0.00
2013-12-3,48.6,46.2,34.9,44.9,42.5,31.1,87,87,86,29.74,29.66,10,6,19,0.00
2013-12-4,55.6,50.7,40.8,51.4,46.6,36.9,87,86,84,29.75,29.51,27,10,27,0.04
2013-12-5,37.2,23.7,20.1,33.1,15.7,11.5,85,71,68,30.29,29.79,24,10,24,0.00
2013-12-6,20.3,13.2,9.3,12.4,6.2,3.1,77,73,65,30.57,30.26,16,6,16,0.00
2013-12-7,10.6,10.0,9.3,4.4,3.9,3.2,76,76,76,30.57,30.56,14,9,14,0.00
2013-12-8,26.2,23.2,9.3,22.1,18.1,3.0,85,81,75,30.54,29.98,24,8,24,0.00
2013-12-9,25.5,17.5,9.7,21.6,10.2,1.5,85,73,67,30.27,29.98,22,10,22,0.00
2013-12-10,24.6,12.8,-2.4,14.2,4.8,-8.6,78,70,61,30.28,30.07,26,6,26,0.00
2013-12-11,22.8,15.1,-0.6,15.3,7.8,-7.4,78,72,66,30.58,30.24,17,6,17,0.00
2013-12-12,28.8,21.2,-1.1,17.4,12.9,-7.6,77,70,61,30.58,30.22,21,6,21,0.00
2013-12-13,38.7,26.0,15.1,28.8,20.8,9.7,86,81,67,30.22,30.03,14,3,14,0.00
2013-12-14,36.7,29.8,16.2,30.2,25.4,11.7,87,84,77,30.05,29.89,10,2,10,0.00
2013-12-15,19.6,15.9,9.5,13.6,9.9,4.8,85,77,68,30.13,30.02,14,3,14,0.00
2013-12-16,27.1,19.0,12.7,17.3,13.0,7.7,85,77,66,30.12,30.02,9,3,9,0.00
2013-12-17,31.6,22.3,18.5,25.3,17.4,12.3,86,82,76,30.16,30.02,18,8,18,0.00
2013-12-18,35.4,29.5,7.0,30.4,24.0,1.9,82,80,70,30.18,29.85,32,15,32,0.04
2013-12-19,43.2,39.1,34.3,35.9,33.7,30.0,86,81,75,29.92,29.82,15,6,15,0.00
2013-12-20,43.0,37.3,31.6,39.4,33.8,28.1,87,87,87,29.84,29.72,114,9,114,0.12
2013-12-21,32.7,31.5,29.8,29.3,28.1,26.4,87,87,87,29.85,29.60,11,2,11,0.02
2013-12-22,33.1,30.6,23.7,29.6,26.9,19.6,87,86,84,30.16,29.60,10,4,10,0.18
2013-12-23,23.5,14.0,2.8,19.4,8.8,-3.3,84,79,73,30.50,30.18,17,8,17,0.00
2013-12-24,16.7,9.6,0.0,9.8,3.2,-5.6,77,75,74,30.58,30.46,10,3,10,0.00
2013-12-25,29.7,26.0,19.9,25.2,21.4,13.6,85,82,75,30.33,30.16,14,7,14,0.00
2013-12-26,37.9,30.2,16.0,29.4,23.5,11.7,84,76,68,30.34,30.18,23,8,23,0.00
2013-12-27,32.2,25.6,20.8,28.1,21.8,17.2,86,86,84,30.32,30.23,9,4,9,0.00
2013-12-28,49.6,35.6,30.6,38.8,30.2,26.6,86,81,66,30.14,29.86,22,9,22,0.00
2013-12-29,35.8,26.4,15.6,29.9,22.3,10.6,87,84,78,30.20,29.81,33,13,33,0.00
2013-12-30,17.8,11.0,2.3,9.5,4.8,-2.7,80,76,67,30.33,30.18,10,4,10,0.00
2013-12-31,25.0,13.3,3.0,16.0,8.1,-1.8,82,79,65,30.39,30.18,14,5,16,0.00
2014-1-1,24.6,21.3,17.2,19.1,16.3,12.1,84,81,78,30.24,30.15,17,10,23,0.00
2014-1-2,19.2,14.4,13.3,15.4,10.0,8.8,85,82,82,30.15,30.10,19,12,24,0.00